| time (UTC) | temp F | wind direction | speed MPH | gust MPH | rain 1hr in | rain 24hr in | rain mn in | humidity % | barometer mb |
| 20260505072521 | 45 | 306 | 3.0 | 10.0 | 0.00 | 0.00 | 0.00 | 74 | 996.6 |
| 20260505072019 | 45 | 352 | 3.0 | 10.0 | 0.00 | 0.00 | 0.00 | 75 | 996.6 |
| 20260505071550 | 45 | 325 | 3.0 | 6.0 | 0.00 | 0.00 | 0.00 | 76 | 996.7 |
| 20260505071020 | 45 | 348 | 3.0 | 6.0 | 0.00 | 0.00 | 0.00 | 77 | 996.6 |
| 20260505070523 | 45 | 356 | 2.0 | 6.0 | 0.00 | 0.00 | 0.00 | 77 | 996.6 |
| 20260505070039 | 45 | 262 | 2.0 | 6.0 | 0.00 | 0.00 | 0.00 | 77 | 996.5 |
| 20260505065522 | 45 | 304 | 2.0 | 6.0 | 0.00 | 0.00 | 0.00 | 78 | 996.4 |
| 20260505065021 | 45 | 207 | 1.0 | 6.0 | 0.00 | 0.00 | 0.00 | 78 | 996.4 |
| 20260505064536 | 45 | 94 | 2.0 | 6.0 | 0.00 | 0.00 | 0.00 | 78 | 996.4 |
| 20260505064018 | 45 | 243 | 2.0 | 7.0 | 0.00 | 0.00 | 0.00 | 79 | 996.3 |
| 20260505063517 | 45 | 239 | 3.0 | 7.0 | 0.00 | 0.00 | 0.00 | 79 | 996.3 |
| 20260505063039 | 45 | 307 | 3.0 | 7.0 | 0.00 | 0.00 | 0.00 | 80 | 996.3 |
| 20260505062526 | 45 | 255 | 3.0 | 8.0 | 0.00 | 0.00 | 0.00 | 80 | 996.3 |
| 20260505062020 | 46 | 328 | 3.0 | 8.0 | 0.00 | 0.00 | 0.00 | 78 | 996.2 |
| 20260505061604 | 46 | 328 | 3.0 | 9.0 | 0.00 | 0.00 | 0.00 | 78 | 996.2 |
| 20260505061021 | 46 | 318 | 4.0 | 9.0 | 0.00 | 0.00 | 0.00 | 79 | 996.2 |
| 20260505060521 | 46 | 257 | 2.0 | 8.0 | 0.00 | 0.00 | 0.00 | 78 | 996.1 |
| 20260505060036 | 47 | 312 | 3.0 | 8.0 | 0.00 | 0.00 | 0.00 | 74 | 996.1 |
| 20260505055524 | 47 | 268 | 3.0 | 8.0 | 0.00 | 0.00 | 0.00 | 71 | 996.1 |
| 20260505055018 | 47 | 280 | 3.0 | 11.0 | 0.00 | 0.00 | 0.00 | 71 | 995.8 |
| 20260505054535 | 47 | 317 | 3.0 | 11.0 | 0.00 | 0.00 | 0.00 | 70 | 995.7 |
| 20260505054018 | 47 | 30 | 3.0 | 11.0 | 0.00 | 0.00 | 0.00 | 72 | 995.6 |
| 20260505053517 | 47 | 32 | 2.0 | 9.0 | 0.00 | 0.00 | 0.00 | 73 | 995.5 |
| 20260505053041 | 47 | 44 | 3.0 | 9.0 | 0.00 | 0.00 | 0.00 | 74 | 995.4 |
| 20260505052518 | 47 | 353 | 3.0 | 7.0 | 0.00 | 0.00 | 0.00 | 76 | 995.5 |
| 20260505052020 | 47 | 184 | 2.0 | 6.0 | 0.00 | 0.00 | 0.00 | 79 | 995.4 |
| 20260505051601 | 47 | 331 | 2.0 | 6.0 | 0.00 | 0.00 | 0.00 | 80 | 995.5 |
| 20260505051021 | 47 | 122 | 2.0 | 6.0 | 0.00 | 0.00 | 0.00 | 81 | 995.3 |
| 20260505050521 | 47 | 103 | 1.0 | 5.0 | 0.00 | 0.00 | 0.00 | 82 | 995.2 |
| 20260505041543 | 47 | 159 | 2.0 | 3.0 | 0.00 | 0.00 | 0.00 | 84 | 995.0 |
| 20260505041018 | 48 | 141 | 1.0 | 3.0 | 0.00 | 0.00 | 0.00 | 83 | 994.9 |
| 20260505040518 | 48 | 354 | 1.0 | 5.0 | 0.00 | 0.00 | 0.00 | 83 | 994.8 |
| 20260505040040 | 48 | 290 | 0.0 | 6.0 | 0.00 | 0.00 | 0.00 | 83 | 994.9 |
| 20260505035521 | 47 | 26 | 3.0 | 6.0 | 0.00 | 0.04 | 0.00 | 83 | 994.8 |
| 20260505035018 | 47 | 13 | 2.0 | 5.0 | 0.00 | 0.04 | 0.00 | 83 | 994.9 |
| 20260505034535 | 47 | 49 | 1.0 | 5.0 | 0.00 | 0.04 | 0.00 | 82 | 995.0 |
| 20260505034020 | 48 | 279 | 1.0 | 6.0 | 0.00 | 0.04 | 0.00 | 82 | 995.0 |
| 20260505033523 | 48 | 123 | 2.0 | 6.0 | 0.00 | 0.04 | 0.00 | 82 | 994.9 |
| 20260505033035 | 48 | 10 | 3.0 | 6.0 | 0.00 | 0.04 | 0.00 | 81 | 994.8 |
| 20260505032521 | 49 | 277 | 2.0 | 7.0 | 0.00 | 0.04 | 0.00 | 81 | 994.9 |
| 20260505032019 | 49 | 291 | 3.0 | 7.0 | 0.00 | 0.04 | 0.00 | 80 | 994.7 |
| 20260505031534 | 49 | 306 | 2.0 | 7.0 | 0.00 | 0.04 | 0.00 | 79 | 994.7 |
| 20260505031020 | 49 | 295 | 1.0 | 6.0 | 0.00 | 0.04 | 0.00 | 78 | 994.6 |
| 20260505030519 | 49 | 286 | 2.0 | 6.0 | 0.00 | 0.04 | 0.00 | 77 | 994.6 |
| 20260505030035 | 49 | 328 | 1.0 | 5.0 | 0.00 | 0.04 | 0.00 | 78 | 994.6 |
| 20260505025519 | 49 | 281 | 1.0 | 5.0 | 0.00 | 0.04 | 0.00 | 78 | 994.6 |
| 20260505025017 | 49 | 231 | 2.0 | 5.0 | 0.00 | 0.04 | 0.00 | 78 | 994.6 |
| 20260505024544 | 49 | 161 | 2.0 | 6.0 | 0.00 | 0.04 | 0.00 | 78 | 994.5 |
| 20260505024020 | 49 | 102 | 2.0 | 9.0 | 0.00 | 0.04 | 0.00 | 79 | 994.4 |
| 20260505023520 | 49 | 20 | 5.0 | 9.0 | 0.00 | 0.04 | 0.00 | 78 | 994.6 |
| 20260505023037 | 49 | 301 | 3.0 | 12.0 | 0.00 | 0.04 | 0.00 | 79 | 994.5 |
| 20260505022520 | 50 | 292 | 4.0 | 12.0 | 0.00 | 0.04 | 0.00 | 78 | 994.5 |
| 20260505022017 | 50 | 285 | 3.0 | 13.0 | 0.00 | 0.04 | 0.00 | 78 | 994.6 |
| 20260505021536 | 50 | 304 | 5.0 | 13.0 | 0.00 | 0.04 | 0.00 | 77 | 994.7 |
| 20260505021019 | 50 | 266 | 5.0 | 13.0 | 0.00 | 0.04 | 0.00 | 76 | 994.8 |
| 20260505020519 | 51 | 172 | 7.0 | 13.0 | 0.00 | 0.04 | 0.00 | 74 | 994.6 |
| 20260505020035 | 52 | 251 | 5.0 | 12.0 | 0.00 | 0.04 | 0.00 | 72 | 994.5 |
| 20260505015518 | 52 | 307 | 7.0 | 12.0 | 0.00 | 0.07 | 0.00 | 70 | 994.4 |
| 20260505015018 | 53 | 283 | 4.0 | 12.0 | 0.00 | 0.07 | 0.00 | 70 | 994.4 |
| 20260505014539 | 54 | 271 | 4.0 | 10.0 | 0.00 | 0.07 | 0.00 | 70 | 994.1 |
| 20260505014024 | 54 | 260 | 5.0 | 10.0 | 0.00 | 0.07 | 0.00 | 69 | 994.0 |
| 20260505013520 | 55 | 328 | 3.0 | 10.0 | 0.00 | 0.07 | 0.00 | 68 | 993.8 |
| 20260505013040 | 55 | 350 | 3.0 | 10.0 | 0.00 | 0.07 | 0.00 | 68 | 993.4 |
| 20260505012520 | 55 | 300 | 3.0 | 6.0 | 0.00 | 0.07 | 0.00 | 68 | 993.4 |
| 20260505012018 | 54 | 233 | 1.0 | 4.0 | 0.00 | 0.07 | 0.00 | 66 | 993.6 |
| 20260505011538 | 54 | 257 | 0.0 | 3.0 | 0.00 | 0.07 | 0.00 | 65 | 993.8 |
| 20260505011020 | 54 | 0 | 0.0 | 3.0 | 0.00 | 0.07 | 0.00 | 64 | 993.6 |
| 20260505010520 | 54 | 319 | 0.0 | 3.0 | 0.00 | 0.07 | 0.00 | 63 | 993.3 |
| 20260505010037 | 54 | 307 | 1.0 | 4.0 | 0.00 | 0.07 | 0.00 | 63 | 993.3 |
| 20260505005518 | 54 | 262 | 1.0 | 4.0 | 0.00 | 0.07 | 0.00 | 62 | 993.4 |
| 20260505005018 | 54 | 265 | 2.0 | 6.0 | 0.00 | 0.07 | 0.00 | 62 | 993.5 |
| 20260505004535 | 55 | 300 | 2.0 | 7.0 | 0.00 | 0.07 | 0.00 | 61 | 993.7 |
| 20260505004019 | 55 | 293 | 3.0 | 7.0 | 0.00 | 0.07 | 0.00 | 60 | 994.0 |
| 20260505003521 | 55 | 283 | 1.0 | 6.0 | 0.00 | 0.07 | 0.00 | 59 | 993.4 |
| 20260505003034 | 55 | 307 | 2.0 | 6.0 | 0.00 | 0.07 | 0.00 | 58 | 993.2 |
| 20260505002518 | 55 | 280 | 3.0 | 6.0 | 0.00 | 0.07 | 0.00 | 56 | 993.3 |
| 20260505002018 | 55 | 271 | 3.0 | 7.0 | 0.00 | 0.07 | 0.00 | 57 | 993.7 |
| 20260505001536 | 55 | 214 | 2.0 | 17.0 | 0.00 | 0.07 | 0.00 | 56 | 993.1 |
| 20260505001018 | 56 | 338 | 4.0 | 17.0 | 0.00 | 0.07 | 0.00 | 55 | 993.0 |
| 20260505000519 | 56 | 337 | 7.0 | 17.0 | 0.00 | 0.07 | 0.00 | 54 | 993.3 |
| 20260505000044 | 55 | 259 | 1.0 | 3.0 | 0.00 | 0.07 | 0.00 | 53 | 992.5 |
| 20260504235520 | 55 | 307 | 1.0 | 6.0 | 0.00 | 0.07 | 0.00 | 54 | 992.2 |
| 20260504235022 | 55 | 252 | 2.0 | 6.0 | 0.00 | 0.07 | 0.00 | 54 | 992.0 |
| 20260504234536 | 55 | 192 | 3.0 | 8.0 | 0.00 | 0.07 | 0.00 | 54 | 992.0 |
| 20260504234020 | 55 | 212 | 4.0 | 8.0 | 0.00 | 0.07 | 0.00 | 53 | 992.2 |
| 20260504233517 | 56 | 220 | 3.0 | 8.0 | 0.00 | 0.07 | 0.00 | 53 | 992.2 |
| 20260504233038 | 55 | 219 | 4.0 | 8.0 | 0.00 | 0.07 | 0.00 | 53 | 992.0 |
| 20260504232521 | 55 | 230 | 4.0 | 9.0 | 0.00 | 0.07 | 0.00 | 54 | 992.1 |
| 20260504232017 | 55 | 209 | 4.0 | 9.0 | 0.00 | 0.07 | 0.00 | 54 | 991.9 |
| 20260504231531 | 56 | 184 | 5.0 | 10.0 | 0.00 | 0.07 | 0.00 | 54 | 992.0 |
| 20260504231018 | 56 | 271 | 6.0 | 10.0 | 0.00 | 0.07 | 0.00 | 54 | 992.2 |
| 20260504230520 | 56 | 215 | 6.0 | 10.0 | 0.00 | 0.07 | 0.00 | 53 | 992.3 |
| 20260504230048 | 57 | 212 | 3.0 | 6.0 | 0.00 | 0.07 | 0.00 | 54 | 992.6 |
| 20260504225519 | 57 | 247 | 3.0 | 9.0 | 0.00 | 0.07 | 0.00 | 52 | 992.8 |
| 20260504225018 | 57 | 274 | 4.0 | 11.0 | 0.00 | 0.07 | 0.00 | 52 | 992.9 |
| 20260504224536 | 58 | 226 | 3.0 | 12.0 | 0.00 | 0.07 | 0.00 | 52 | 993.0 |
| 20260504224020 | 59 | 225 | 7.0 | 12.0 | 0.00 | 0.07 | 0.00 | 50 | 993.3 |
| 20260504223520 | 59 | 290 | 2.0 | 6.0 | 0.00 | 0.07 | 0.00 | 48 | 993.1 |
| 20260504223035 | 60 | 225 | 2.0 | 5.0 | 0.00 | 0.07 | 0.00 | 48 | 993.3 |
| 20260504222520 | 60 | 248 | 2.0 | 8.0 | 0.00 | 0.07 | 0.00 | 49 | 993.6 |
| 20260504222019 | 60 | 239 | 3.0 | 8.0 | 0.00 | 0.07 | 0.00 | 48 | 993.8 |
| 20260504221533 | 60 | 236 | 2.0 | 6.0 | 0.00 | 0.07 | 0.00 | 48 | 993.3 |
| 20260504221017 | 60 | 331 | 2.0 | 14.0 | 0.00 | 0.07 | 0.00 | 47 | 993.2 |
| 20260504220520 | 60 | 301 | 7.0 | 14.0 | 0.00 | 0.07 | 0.00 | 46 | 993.6 |
| 20260504220035 | 61 | 240 | 3.0 | 17.0 | 0.00 | 0.07 | 0.00 | 47 | 993.2 |
| 20260504215518 | 62 | 277 | 8.0 | 17.0 | 0.00 | 0.07 | 0.00 | 44 | 993.2 |
| 20260504215020 | 63 | 322 | 6.0 | 17.0 | 0.00 | 0.07 | 0.00 | 43 | 993.2 |
| 20260504214536 | 62 | 289 | 3.0 | 13.0 | 0.00 | 0.07 | 0.00 | 45 | 993.0 |
| 20260504214023 | 62 | 241 | 3.0 | 13.0 | 0.00 | 0.07 | 0.00 | 45 | 992.8 |
| 20260504213519 | 62 | 230 | 7.0 | 13.0 | 0.00 | 0.07 | 0.00 | 44 | 992.6 |
| 20260504213035 | 61 | 228 | 4.0 | 11.0 | 0.00 | 0.07 | 0.00 | 46 | 992.7 |
| 20260504212521 | 62 | 231 | 4.0 | 11.0 | 0.00 | 0.07 | 0.00 | 45 | 992.7 |
| 20260504212019 | 62 | 277 | 6.0 | 12.0 | 0.00 | 0.07 | 0.00 | 45 | 992.7 |
| 20260504211538 | 62 | 308 | 5.0 | 13.0 | 0.00 | 0.07 | 0.00 | 46 | 992.7 |
| 20260504211020 | 63 | 284 | 5.0 | 13.0 | 0.00 | 0.07 | 0.00 | 45 | 992.7 |
| 20260504210520 | 63 | 229 | 6.0 | 17.0 | 0.00 | 0.07 | 0.00 | 44 | 992.5 |
| 20260504210043 | 63 | 296 | 6.0 | 17.0 | 0.00 | 0.07 | 0.00 | 46 | 992.6 |
| 20260504205519 | 63 | 247 | 8.0 | 14.0 | 0.00 | 0.07 | 0.00 | 46 | 992.5 |
| 20260504205018 | 64 | 271 | 6.0 | 14.0 | 0.00 | 0.07 | 0.00 | 46 | 992.6 |
| 20260504204546 | 64 | 189 | 3.0 | 15.0 | 0.00 | 0.07 | 0.00 | 49 | 992.5 |
| 20260504204023 | 64 | 254 | 8.0 | 19.0 | 0.00 | 0.07 | 0.00 | 47 | 992.5 |
| 20260504203520 | 64 | 204 | 9.0 | 19.0 | 0.00 | 0.07 | 0.00 | 47 | 992.5 |
| 20260504203052 | 65 | 250 | 7.0 | 19.0 | 0.00 | 0.07 | 0.00 | 47 | 992.6 |
| 20260504202519 | 64 | 198 | 6.0 | 17.0 | 0.00 | 0.07 | 0.00 | 49 | 992.6 |
| 20260504202017 | 64 | 157 | 9.0 | 16.0 | 0.00 | 0.07 | 0.00 | 48 | 992.6 |
| 20260504201537 | 65 | 210 | 7.0 | 14.0 | 0.00 | 0.07 | 0.00 | 49 | 992.6 |
| 20260504201025 | 64 | 238 | 6.0 | 10.0 | 0.00 | 0.07 | 0.00 | 52 | 992.7 |
| 20260504200518 | 63 | 237 | 5.0 | 12.0 | 0.00 | 0.07 | 0.00 | 53 | 992.9 |
| 20260504200037 | 62 | 224 | 5.0 | 17.0 | 0.00 | 0.07 | 0.00 | 53 | 993.0 |
| 20260504195520 | 63 | 174 | 7.0 | 17.0 | 0.00 | 0.07 | 0.00 | 53 | 993.2 |
| 20260504195019 | 63 | 213 | 8.0 | 14.0 | 0.00 | 0.07 | 0.00 | 53 | 993.5 |
| 20260504194539 | 63 | 212 | 7.0 | 16.0 | 0.00 | 0.07 | 0.00 | 54 | 993.7 |
| 20260504194019 | 62 | 224 | 8.0 | 18.0 | 0.00 | 0.07 | 0.00 | 55 | 993.7 |
| 20260504193520 | 62 | 224 | 10.0 | 21.0 | 0.00 | 0.07 | 0.00 | 55 | 993.8 |
| 20260504193039 | 61 | 237 | 12.0 | 21.0 | 0.00 | 0.07 | 0.00 | 54 | 993.8 |
| 20260504192519 | 61 | 234 | 11.0 | 21.0 | 0.00 | 0.07 | 0.00 | 55 | 993.9 |
| 20260504192020 | 61 | 195 | 9.0 | 17.0 | 0.00 | 0.07 | 0.00 | 55 | 994.0 |
| 20260504191537 | 59 | 218 | 8.0 | 18.0 | 0.00 | 0.07 | 0.00 | 58 | 994.2 |
| 20260504191019 | 59 | 196 | 8.0 | 18.0 | 0.00 | 0.07 | 0.00 | 57 | 994.5 |
| 20260504190519 | 59 | 215 | 8.0 | 14.0 | 0.00 | 0.07 | 0.00 | 59 | 994.4 |
| 20260504190050 | 59 | 205 | 7.0 | 18.0 | 0.00 | 0.07 | 0.00 | 59 | 994.4 |
| 20260504185520 | 59 | 231 | 9.0 | 18.0 | 0.00 | 0.07 | 0.00 | 59 | 994.5 |
| 20260504185019 | 59 | 181 | 10.0 | 18.0 | 0.00 | 0.07 | 0.00 | 58 | 994.5 |
| 20260504184536 | 60 | 198 | 11.0 | 17.0 | 0.00 | 0.07 | 0.00 | 58 | 994.6 |
| 20260504184020 | 59 | 221 | 10.0 | 16.0 | 0.00 | 0.07 | 0.00 | 59 | 994.7 |
| 20260504183520 | 59 | 226 | 10.0 | 16.0 | 0.00 | 0.07 | 0.00 | 59 | 994.9 |
| 20260504183035 | 58 | 226 | 10.0 | 19.0 | 0.00 | 0.07 | 0.00 | 60 | 995.0 |
| 20260504182526 | 58 | 212 | 10.0 | 19.0 | 0.00 | 0.07 | 0.00 | 61 | 995.1 |
| 20260504182022 | 59 | 266 | 7.0 | 15.0 | 0.00 | 0.07 | 0.00 | 61 | 995.3 |
| 20260504181540 | 58 | 174 | 10.0 | 16.0 | 0.00 | 0.07 | 0.00 | 61 | 995.2 |
| 20260504181020 | 58 | 223 | 8.0 | 16.0 | 0.00 | 0.07 | 0.00 | 62 | 995.3 |
| 20260504180523 | 58 | 225 | 10.0 | 16.0 | 0.00 | 0.07 | 0.00 | 62 | 995.4 |
| 20260504180040 | 58 | 219 | 6.0 | 17.0 | 0.00 | 0.07 | 0.00 | 62 | 995.4 |
| 20260504175520 | 58 | 244 | 9.0 | 17.0 | 0.00 | 0.09 | 0.00 | 62 | 995.3 |
| 20260504175019 | 57 | 196 | 10.0 | 17.0 | 0.00 | 0.09 | 0.00 | 62 | 995.2 |
| 20260504174535 | 57 | 228 | 10.0 | 17.0 | 0.00 | 0.09 | 0.00 | 62 | 995.1 |
| 20260504174020 | 58 | 221 | 7.0 | 15.0 | 0.00 | 0.09 | 0.00 | 61 | 995.2 |
| 20260504173522 | 58 | 218 | 7.0 | 14.0 | 0.00 | 0.09 | 0.00 | 65 | 995.3 |
| 20260504173036 | 57 | 224 | 8.0 | 14.0 | 0.00 | 0.09 | 0.00 | 65 | 995.6 |
| 20260504172519 | 57 | 215 | 8.0 | 14.0 | 0.00 | 0.09 | 0.00 | 67 | 995.7 |
| 20260504172019 | 56 | 236 | 7.0 | 14.0 | 0.00 | 0.09 | 0.00 | 67 | 995.8 |
| 20260504171534 | 57 | 226 | 6.0 | 15.0 | 0.00 | 0.09 | 0.00 | 66 | 995.7 |
| 20260504171023 | 56 | 248 | 5.0 | 15.0 | 0.00 | 0.09 | 0.00 | 67 | 995.8 |
| 20260504170518 | 56 | 198 | 7.0 | 18.0 | 0.00 | 0.09 | 0.00 | 67 | 996.0 |
| 20260504151020 | 53 | 207 | 4.0 | 8.0 | 0.00 | 0.09 | 0.00 | 77 | 997.5 |
| 20260504150521 | 52 | 236 | 3.0 | 9.0 | 0.00 | 0.09 | 0.00 | 78 | 997.6 |
| 20260504141022 | 52 | 224 | 3.0 | 8.0 | 0.00 | 0.09 | 0.00 | 79 | 997.9 |
| 20260504140525 | 52 | 208 | 3.0 | 8.0 | 0.00 | 0.09 | 0.00 | 78 | 997.9 |
| 20260504130521 | 49 | 141 | 2.0 | 6.0 | 0.00 | 0.09 | 0.00 | 85 | 999.1 |
| 20260504110520 | 36 | 0 | 0.0 | 1.0 | 0.00 | 0.09 | 0.00 | 95 | 999.3 |
| 20260504100518 | 36 | 0 | 0.0 | 1.0 | 0.00 | 0.09 | 0.00 | 94 | 999.6 |
| 20260504081536 | 41 | 0 | 0.0 | 0.0 | 0.00 | 0.09 | 0.00 | 93 | 1000.3 |
| 20260504081019 | 41 | 0 | 0.0 | 0.0 | 0.00 | 0.09 | 0.00 | 94 | 1000.4 |
| 20260504080520 | 42 | 0 | 0.0 | 1.0 | 0.00 | 0.09 | 0.00 | 94 | 1000.4 |